[[{"header":{"parameterUnit":"m.s-1","parameterCategory":2,"la1":30.2991,"la2":30.254,"lo1":-89.0895,"lo2":-89.0444,"dy":0.0017,"dx":0.0017,"nx":28,"ny":28,"refTime":"2024-02-15T09:00:00:Z","depth":"0","parameterNumber":2,"parameterNumberName":"U-component_of_CURRENTS"},"data":[0,0,0,0,0,0,0,0,0,0,0,0,0,0,0,0,0,0,0,0,0,0,0,0,0,0,0,0,0,0,0,0,0,0,0,0,0,0,0,0,0,0,0,0,0,0,0,0,0,0,0,0,0,0,0,0,0,0,0.2756,0.2756,0,0.2803,0.2803,0.2804,0.2918,0.292,0.2923,0.2925,0.2977,0.2976,0.2975,0,0,0,0,0,0,0,0,0,0,0,0,0,0.2754,0.2753,0.2756,0.2756,0.2756,0.2802,0.2803,0.2804,0.2918,0.292,0.2923,0.2926,0.2977,0.2976,0.2975,0,0,0,0,0,0,0,0,0,0,0,0,0,0.2775,0.2753,0.2756,0.2817,0.2823,0.2802,0.2803,0.2804,0.2917,0.2921,0.2924,0.2927,0.2977,0.2976,0.2975,0.2902,0,0,0.2972,0.2972,0,0,0,0,0,0,0,0,0.2773,0.2775,0.2808,0.2813,0.282,0.2856,0.2822,0.2837,0.2916,0.2883,0.2925,0.2929,0.2933,0.2936,0.294,0.2905,0.2907,0.2972,0.2971,0.2971,0.2971,0,0,0,0,0,0,0,0.2772,0.2773,0.2776,0.2808,0.2815,0.2839,0.2846,0.2825,0.2891,0.2887,0.2895,0.2896,0.2937,0.2941,0.2942,0.2908,0.2972,0.2971,0.2971,0.297,0.291,0.2909,0,0,0,0,0,0,0.2759,0.2771,0.2775,0.2777,0.2802,0.2836,0.2844,0.2843,0.2891,0.2901,0.2893,0.2901,0.2941,0.2943,0.2944,0.2998,0.2971,0.297,0.2969,0.2911,0.291,0.2909,0,0,0,0,0,0,0.2758,0.2758,0.2773,0.2775,0.2778,0.2832,0.283,0.2842,0.2857,0.2895,0.2907,0.2897,0.2944,0.2946,0.2936,0.2996,0.297,0.2969,0.2913,0.2911,0.291,0.3018,0,0,0,0,0,0,0.2758,0.2758,0.2753,0.2773,0.2777,0.2782,0.2827,0.284,0.2851,0.2862,0.2901,0.291,0.2946,0.2937,0.2935,0.2994,0.2968,0.2914,0.2912,0.291,0.3015,0.302,0.3024,0,0,0,0,0,0.2758,0.2775,0.2752,0.2753,0.2769,0.2782,0.2787,0.2838,0.2847,0.2861,0.2875,0.291,0.2925,0.2934,0.2932,0.2993,0.2915,0.2912,0.291,0.3013,0.3019,0.3024,0,0,0,0,0,0,0.279,0.2787,0.2765,0.2781,0.2774,0.2801,0.283,0.2821,0.2839,0.2858,0.2878,0.2887,0.291,0.2897,0.2906,0.2961,0.2931,0.2928,0.301,0.3016,0.302,0.3156,0.2967,0,0,0,0,0,0.2778,0.2797,0.2769,0.279,0.2782,0.2784,0.2792,0.2811,0.2825,0.2838,0.2849,0.2864,0.2891,0.291,0.2915,0.2921,0.2996,0.2957,0.2962,0.2966,0.3069,0.3175,0.3203,0.2902,0.2902,0.2902,0,0,0.281,0.2802,0.2819,0.2797,0.2805,0.2841,0.2802,0.2825,0.2884,0.2834,0.2903,0.2868,0.2886,0.2927,0.2937,0.2934,0.308,0.2963,0.2969,0.3071,0.3177,0.3208,0.3235,0.29,0.2901,0.2901,0,0,0.2909,0.2855,0.291,0.2906,0.2898,0.2884,0.2879,0.2871,0.2899,0.291,0.2912,0.2919,0.2915,0.2981,0.3008,0.3022,0.3088,0.2984,0.3146,0.3245,0.3274,0.3301,0.3416,0.3452,0.3003,0.3003,0.3003,0,0.2959,0.2996,0.2928,0.2982,0.3008,0.2906,0.2978,0.298,0.2974,0.3009,0.2958,0.2999,0.2985,0.3107,0.3128,0.3054,0.3114,0.3134,0.3263,0.3291,0.3317,0.3429,0.3468,0.3008,0.3007,0.3007,0.3006,0,0.3085,0.3127,0.3162,0.3192,0.3195,0.3233,0.3207,0.3203,0.3173,0.3183,0.3238,0.3198,0.3248,0.3213,0.3195,0.3353,0.3335,0.325,0.3278,0.3357,0.3465,0.3504,0.3015,0.3013,0.3012,0.301,0,0,0.3222,0.3249,0.3271,0.3311,0.3308,0.3321,0.3397,0.3435,0.35,0.3462,0.3577,0.3587,0.3532,0.3559,0.3494,0.3583,0.3778,0.3513,0.3516,0.3682,0.403,0.3933,0.3965,0.3709,0.3717,0.3723,0.4028,0,0.336,0.3467,0.3464,0.3591,0.3634,0.3593,0.3669,0.369,0.3681,0.374,0.3728,0.3783,0.3671,0.3678,0.3755,0.3755,0.3889,0.3708,0.3887,0.3895,0.3843,0.401,0.3791,0.4038,0.4066,0.4073,0.4078,0,0.3503,0.3547,0.3668,0.376,0.3781,0.3845,0.3914,0.3973,0.4032,0.4038,0.409,0.4047,0.4166,0.4027,0.4203,0.4084,0.4122,0.4125,0.4134,0.4064,0.3873,0.3961,0.4108,0.3966,0.4138,0.4133,0.4129,0,0.3575,0.3712,0.3792,0.3824,0.3892,0.397,0.4012,0.407,0.4134,0.4233,0.4287,0.4368,0.4417,0.4482,0.4451,0.436,0.4638,0.4492,0.4475,0.4467,0.4339,0.4307,0.443,0.4717,0.4716,0.4715,0.4714,0,0.3706,0.3805,0.3831,0.3874,0.4008,0.4042,0.4181,0.4233,0.4328,0.4425,0.444,0.4537,0.4538,0.4631,0.4605,0.4673,0.477,0.4614,0.4576,0.4357,0.4325,0.4235,0.4157,0.4727,0.4724,0.4722,0.472,0,0.3808,0.3816,0.3923,0.3998,0.4037,0.413,0.4268,0.4346,0.4444,0.458,0.4628,0.4736,0.485,0.4843,0.4957,0.4876,0.4794,0.4937,0.4685,0.4613,0.4406,0.434,0.4388,0.427,0.5008,0.5008,0.5008,0,0.3862,0.391,0.398,0.4017,0.4072,0.4196,0.4265,0.4386,0.4469,0.4685,0.4757,0.4928,0.4976,0.5111,0.5019,0.5027,0.4846,0.4855,0.4648,0.4476,0.4375,0.4189,0.4072,0.452,0.4516,0.4513,0.451,0,0.3961,0.3966,0.4002,0.4065,0.4145,0.4257,0.438,0.4458,0.4594,0.4692,0.4846,0.4918,0.5039,0.4917,0.4922,0.4887,0.4592,0.4788,0.4683,0.4125,0.3866,0.37,0.425,0.4481,0.4484,0.4486,0.4488,0.4489,0.3993,0.4026,0.4015,0.41,0.4177,0.4273,0.4321,0.4419,0.4518,0.459,0.4783,0.4781,0.477,0.4717,0.4669,0.4425,0.4434,0.4247,0.4229,0.4094,0.3839,0.4348,0.4456,0.4459,0.4461,0.4463,0.4465,0,0.398,0.3993,0.405,0.4095,0.4147,0.4225,0.4333,0.4313,0.4332,0.4428,0.4476,0.4387,0.4274,0.4221,0.4026,0.3869,0.3685,0.3759,0.3451,0.3399,0.3933,0.3762,0.3631,0.3631,0.3632,0.3632,0.3632,0.3632,0.3958,0.3962,0.3985,0.4024,0.4065,0.408,0.4108,0.4071,0.4089,0.3941,0.3828,0.3833,0.3824,0.3728,0.3506,0.3425,0.3178,0.3029,0.307,0.342,0.3461,0.3501,0.3323,0.3103,0.3102,0.2356,0.2351,0.2347]},{"header":{"parameterUnit":"m.s-1","parameterCategory":2,"la1":30.2991,"la2":30.254,"lo1":-89.0895,"lo2":-89.0444,"dy":0.0017,"dx":0.0017,"nx":28,"ny":28,"refTime":"2024-02-15T09:00:00:Z","depth":"0","parameterNumber":3,"parameterNumberName":"V-component_of_CURRENTS"},"data":[0,0,0,0,0,0,0,0,0,0,0,0,0,0,0,0,0,0,0,0,0,0,0,0,0,0,0,0,0,0,0,0,0,0,0,0,0,0,0,0,0,0,0,0,0,0,0,0,0,0,0,0,0,0,0,0,0,0,0.0195,0.0194,0,0.014,0.0139,0.0139,0.0078,0.0078,0.0077,0.0076,-0.0011,-0.0012,-0.0014,0,0,0,0,0,0,0,0,0,0,0,0,0,0.0205,0.0205,0.0195,0.0194,0.0194,0.014,0.0139,0.0138,0.0078,0.0078,0.0077,0.0076,-0.001,-0.0012,-0.0014,0,0,0,0,0,0,0,0,0,0,0,0,0,0.0179,0.0205,0.0195,0.0159,0.0155,0.0141,0.0139,0.0138,0.0079,0.0078,0.0076,0.0075,-0.0009,-0.0012,-0.0014,-0.0008,0,0,-0.0022,-0.0023,0,0,0,0,0,0,0,0,0.0181,0.0179,0.0164,0.0161,0.0157,0.0116,0.0111,0.0088,0.0079,0.0106,0.0076,0.0075,0.0031,0.0025,0.0015,-0.0012,-0.0016,-0.0022,-0.0024,-0.0025,-0.0025,0,0,0,0,0,0,0,0.0183,0.018,0.0171,0.0164,0.0159,0.0131,0.0126,0.0106,0.0073,0.0103,0.0099,0.0096,0.0028,0.0018,0.0013,-0.0017,-0.0022,-0.0024,-0.0026,-0.0027,-0.0044,-0.0043,0,0,0,0,0,0,0.0196,0.0183,0.0173,0.017,0.0168,0.0132,0.0126,0.0129,0.0074,0.0065,0.0097,0.0094,0.0022,0.0016,0.0009,0.003,-0.0025,-0.0027,-0.0028,-0.0045,-0.0044,-0.0043,0,0,0,0,0,0,0.0197,0.0196,0.0175,0.0176,0.0171,0.0133,0.0136,0.0129,0.0119,0.007,0.006,0.0096,0.0021,0.0013,-0.0003,0.0025,-0.0028,-0.003,-0.0046,-0.0045,-0.0043,0.0061,0,0,0,0,0,0,0.0198,0.0197,0.0204,0.0177,0.0172,0.0179,0.0137,0.0128,0.0119,0.0114,0.0066,0.0056,0.002,0.0002,-0.0005,0.0021,-0.0032,-0.0048,-0.0046,-0.0044,0.0056,0.0066,0.0074,0,0,0,0,0,0.0198,0.0222,0.0205,0.0203,0.0183,0.018,0.0175,0.0142,0.0121,0.0127,0.0091,0.0058,0.0009,0.0001,-0.0007,0.0019,-0.0049,-0.0046,-0.0044,0.0052,0.0064,0.0074,0,0,0,0,0,0,0.0235,0.0217,0.0198,0.0215,0.0201,0.0171,0.0175,0.0152,0.0128,0.0121,0.007,0.0059,0.0055,0.0023,0.0015,0.0018,-0.0025,-0.0024,0.0051,0.0062,0.0071,0.0097,-0.0034,0,0,0,0,0,0.0246,0.0256,0.0232,0.0246,0.0241,0.0208,0.0202,0.0182,0.0158,0.0146,0.0112,0.0079,0.006,0.0049,0.0023,0.0028,0.0022,0.0039,0.0048,0.0056,0.0072,0.0085,0.0097,-0.0035,-0.0035,-0.0036,0,0,0.0268,0.0257,0.0264,0.0254,0.0238,0.0251,0.0202,0.0202,0.0216,0.0141,0.0148,0.0107,0.0066,0.0069,0.0065,0.0046,0.0094,0.0059,0.0066,0.0078,0.0088,0.0102,0.0113,-0.0034,-0.0034,-0.0034,0,0,0.0324,0.0303,0.0331,0.0324,0.0308,0.0287,0.0292,0.0265,0.0255,0.0252,0.0205,0.0188,0.0151,0.0136,0.0122,0.0167,0.0138,0.0152,0.0224,0.0236,0.0248,0.0258,0.0287,0.0299,0.016,0.0161,0.0161,0,0.0348,0.0378,0.0341,0.0364,0.0367,0.031,0.0343,0.033,0.0303,0.0308,0.0266,0.0232,0.0189,0.0211,0.0217,0.019,0.0194,0.0188,0.025,0.026,0.0268,0.0296,0.0307,0.0166,0.0165,0.0165,0.0164,0,0.0418,0.0444,0.0461,0.0468,0.0467,0.0485,0.0459,0.0457,0.0426,0.0411,0.0414,0.0357,0.034,0.0321,0.0277,0.032,0.0304,0.0259,0.0229,0.0288,0.0313,0.0323,0.0174,0.0172,0.017,0.0169,0,0,0.0477,0.0505,0.0513,0.0535,0.0522,0.0529,0.0553,0.0563,0.0583,0.0548,0.0584,0.0536,0.0498,0.048,0.0429,0.0429,0.0484,0.0373,0.0371,0.0414,0.053,0.0488,0.0494,0.0449,0.0451,0.0452,0.0532,0,0.0545,0.0608,0.0606,0.0669,0.0697,0.0664,0.0691,0.0688,0.0668,0.0685,0.0643,0.0647,0.0564,0.0556,0.0547,0.0495,0.0512,0.0468,0.0456,0.0457,0.042,0.0505,0.0463,0.0526,0.0541,0.0543,0.0544,0,0.0612,0.0648,0.0717,0.0765,0.0775,0.0804,0.0824,0.0843,0.0849,0.0837,0.0835,0.0793,0.08,0.0707,0.0689,0.0665,0.0614,0.057,0.0571,0.0502,0.0432,0.0463,0.0544,0.0334,0.0559,0.0558,0.0557,0,0.0648,0.0726,0.078,0.0794,0.0835,0.0869,0.0888,0.0894,0.0922,0.0943,0.0973,0.095,0.097,0.0896,0.0805,0.0751,0.0786,0.07,0.0627,0.0624,0.0572,0.056,0.0456,0.0703,0.0703,0.0703,0.0702,0,0.0707,0.0761,0.0807,0.0836,0.0911,0.0922,0.0986,0.1,0.1038,0.111,0.1062,0.1142,0.1018,0.1012,0.0886,0.0813,0.0861,0.0671,0.0649,0.0607,0.0598,0.0396,0.0291,0.0706,0.0705,0.0704,0.0704,0,0.0742,0.0767,0.0841,0.0905,0.0928,0.098,0.105,0.1093,0.1135,0.1234,0.1259,0.1312,0.1329,0.1199,0.1116,0.0952,0.074,0.0814,0.0782,0.0753,0.0433,0.0337,0.025,0.0163,0.0734,0.0734,0.0734,0,0.0765,0.0805,0.0879,0.0914,0.0952,0.1023,0.1067,0.1126,0.1191,0.1363,0.1437,0.1511,0.1605,0.1474,0.1203,0.1003,0.08,0.0784,0.0652,0.0438,0.0315,0.0241,0.0169,0.0639,0.0638,0.0637,0.0636,0,0.0817,0.0834,0.0881,0.0952,0.1013,0.1093,0.1185,0.1262,0.137,0.1505,0.1735,0.1849,0.1758,0.1589,0.1281,0.1086,0.061,0.0755,0.0545,0.0251,0.0157,0.0055,0.0572,0.0628,0.0629,0.0629,0.063,0.063,0.084,0.0878,0.0919,0.099,0.1065,0.118,0.1279,0.1415,0.1595,0.186,0.1952,0.2187,0.1868,0.1477,0.119,0.0558,0.0592,0.0328,0.0243,0.0199,0.0062,0.0567,0.0575,0.0576,0.0576,0.0576,0.0577,0,0.0854,0.0888,0.0951,0.1047,0.1145,0.1185,0.1363,0.1506,0.1771,0.2046,0.2273,0.2261,0.1834,0.1353,0.0536,0.0109,-0.0054,-0.0132,-0.0266,-0.0306,0.0153,0.0089,-0.0022,-0.0022,-0.0022,-0.0021,-0.0021,-0.0021,0.0859,0.0903,0.0934,0.1087,0.1177,0.1357,0.1483,0.1732,0.197,0.2332,0.2513,0.2623,0.2197,0.0795,-0.0177,-0.0401,-0.0673,-0.0729,-0.0836,-0.0574,-0.0539,-0.0505,-0.0593,-0.0846,-0.0847,-0.1282,-0.1287,-0.129]}],[{"header":{"parameterUnit":"m.s-1","parameterCategory":2,"la1":30.2991,"la2":30.254,"lo1":-89.0895,"lo2":-89.0444,"dy":0.0017,"dx":0.0017,"nx":28,"ny":28,"refTime":"2024-02-15T09:00:00:Z","depth":"2","parameterNumber":2,"parameterNumberName":"U-component_of_CURRENTS"},"data":[0,0,0,0,0,0,0,0,0,0,0,0,0,0,0,0,0,0,0,0,0,0,0,0,0,0,0,0,0,0,0,0,0,0,0,0,0,0,0,0,0,0,0,0,0,0,0,0,0,0,0,0,0,0,0,0,0,0,0.2169,0.217,0,0.2205,0.2205,0.2205,0.224,0.224,0.2241,0.2241,0.2265,0.2265,0.2265,0,0,0,0,0,0,0,0,0,0,0,0,0,0.2124,0.2124,0.2169,0.217,0.217,0.2205,0.2205,0.2205,0.224,0.224,0.2241,0.2241,0.2265,0.2265,0.2265,0,0,0,0,0,0,0,0,0,0,0,0,0,0.2149,0.2124,0.2169,0.2192,0.2195,0.2205,0.2205,0.2206,0.224,0.224,0.2241,0.2242,0.2264,0.2265,0.2265,0.2251,0,0,0.2266,0.2266,0,0,0,0,0,0,0,0,0.2147,0.2151,0.2188,0.2191,0.2193,0.2219,0.2198,0.222,0.2239,0.2222,0.2241,0.2242,0.2248,0.225,0.2254,0.2252,0.2253,0.2266,0.2266,0.2266,0.2266,0,0,0,0,0,0,0,0.2146,0.2149,0.2183,0.2189,0.2192,0.2198,0.2202,0.2202,0.2229,0.2223,0.2226,0.2231,0.2249,0.2254,0.2255,0.2253,0.2266,0.2266,0.2266,0.2266,0.2306,0.2307,0,0,0,0,0,0,0.2142,0.2147,0.2181,0.2184,0.2173,0.2198,0.2203,0.221,0.223,0.2234,0.223,0.2232,0.2253,0.2254,0.2256,0.2297,0.2266,0.2266,0.2266,0.2305,0.2306,0.2307,0,0,0,0,0,0,0.2141,0.2145,0.218,0.2167,0.2172,0.2198,0.2205,0.221,0.2227,0.2235,0.2239,0.2244,0.2253,0.2255,0.2274,0.2296,0.2266,0.2266,0.2304,0.2305,0.2307,0.2342,0,0,0,0,0,0,0.214,0.2144,0.2151,0.2167,0.2173,0.2199,0.2205,0.221,0.2228,0.2232,0.2248,0.225,0.2254,0.2274,0.2274,0.2295,0.2266,0.2303,0.2304,0.2306,0.234,0.2345,0.2349,0,0,0,0,0,0.2138,0.2148,0.2152,0.2156,0.218,0.22,0.2204,0.2224,0.2228,0.2241,0.2254,0.225,0.2286,0.2275,0.2275,0.2297,0.2302,0.2304,0.2306,0.2338,0.2344,0.2349,0,0,0,0,0,0,0.2134,0.2153,0.2157,0.2173,0.219,0.2206,0.222,0.2228,0.2247,0.2252,0.2257,0.2261,0.2287,0.2284,0.2272,0.2314,0.2295,0.2297,0.2319,0.2325,0.2329,0.2361,0.2267,0,0,0,0,0,0.2134,0.2145,0.2164,0.2175,0.2186,0.2202,0.2213,0.2226,0.2242,0.2252,0.2261,0.2274,0.2292,0.2303,0.2313,0.233,0.2369,0.2346,0.235,0.2354,0.2381,0.2449,0.2463,0.2314,0.2314,0.2314,0,0,0.2132,0.2146,0.2151,0.2175,0.219,0.2217,0.2211,0.2233,0.2262,0.2249,0.2287,0.2287,0.23,0.2327,0.2338,0.233,0.2419,0.2357,0.236,0.2386,0.2453,0.2467,0.248,0.2315,0.2315,0.2315,0,0,0.2141,0.2151,0.2168,0.219,0.2217,0.2228,0.2236,0.2257,0.2277,0.2297,0.2307,0.2326,0.2335,0.2364,0.2375,0.2409,0.2438,0.2406,0.2458,0.2522,0.2536,0.2548,0.2627,0.2646,0.2411,0.2411,0.2411,0,0.2146,0.2163,0.2175,0.2207,0.2229,0.2236,0.2266,0.2289,0.2313,0.2339,0.2314,0.2365,0.2359,0.2426,0.2436,0.2421,0.2471,0.2434,0.2531,0.2543,0.2555,0.2633,0.2654,0.2413,0.2413,0.2412,0.2412,0,0.2178,0.2192,0.2206,0.2248,0.2274,0.2297,0.2332,0.2361,0.2366,0.2386,0.2437,0.2434,0.2478,0.2466,0.2457,0.2545,0.2558,0.2526,0.2519,0.2573,0.2651,0.2672,0.2416,0.2415,0.2414,0.2414,0,0,0.2185,0.222,0.2229,0.224,0.2297,0.2314,0.2379,0.2431,0.2471,0.2492,0.2554,0.257,0.2579,0.2595,0.2593,0.2633,0.2742,0.262,0.2622,0.2705,0.2914,0.2816,0.283,0.2732,0.2735,0.2738,0.2939,0,0.2205,0.225,0.2275,0.2313,0.233,0.2376,0.2429,0.2485,0.2516,0.2577,0.2611,0.2648,0.263,0.2639,0.2695,0.2733,0.2798,0.2692,0.2846,0.2851,0.2762,0.285,0.2609,0.2758,0.2959,0.2963,0.2965,0,0.2224,0.225,0.2293,0.2325,0.2343,0.2381,0.2465,0.2514,0.2618,0.2649,0.2729,0.2744,0.2848,0.2784,0.2945,0.2885,0.292,0.2932,0.2939,0.2855,0.2792,0.2735,0.2789,0.3,0.2997,0.2995,0.2992,0,0.2205,0.2249,0.2275,0.2297,0.2357,0.2399,0.2445,0.254,0.2589,0.2709,0.2745,0.2874,0.2936,0.3015,0.307,0.302,0.3225,0.3156,0.3113,0.3108,0.2937,0.2909,0.3267,0.3267,0.3267,0.3266,0.3266,0,0.2194,0.221,0.2265,0.229,0.2316,0.2384,0.245,0.2511,0.2628,0.2692,0.2785,0.2851,0.2991,0.3107,0.3144,0.3225,0.331,0.3162,0.3161,0.294,0.2912,0.3134,0.3116,0.3274,0.3272,0.3271,0.3269,0,0.2139,0.2183,0.2202,0.2279,0.2302,0.2323,0.2433,0.2482,0.2599,0.2696,0.2734,0.2896,0.3055,0.3182,0.333,0.3309,0.3377,0.3373,0.3116,0.3078,0.3203,0.3184,0.3361,0.3359,0.3358,0.3356,0.3355,0,0.2108,0.2122,0.2185,0.2186,0.2214,0.2275,0.2323,0.2455,0.2516,0.2697,0.2734,0.2923,0.3024,0.3242,0.3275,0.3378,0.3417,0.3158,0.2988,0.3235,0.3217,0.32,0.3184,0.2797,0.2791,0.2787,0.2783,0,0.2049,0.2079,0.2109,0.2116,0.2147,0.22,0.2286,0.2317,0.2482,0.257,0.2699,0.2788,0.2997,0.2999,0.3124,0.3121,0.312,0.3065,0.3434,0.2782,0.2711,0.269,0.2692,0.2744,0.2748,0.275,0.2753,0.2754,0.2021,0.1998,0.2039,0.2039,0.2071,0.2113,0.2115,0.2224,0.2313,0.2404,0.2575,0.2654,0.2739,0.281,0.2766,0.2744,0.2936,0.2788,0.2799,0.2816,0.2686,0.2613,0.2606,0.2609,0.2612,0.2614,0.2616,0,0.1962,0.1954,0.195,0.195,0.1942,0.2019,0.2073,0.205,0.2091,0.2251,0.2357,0.2254,0.2295,0.2396,0.2299,0.2285,0.2232,0.2189,0.2104,0.2148,0.2186,0.2019,0.1765,0.1762,0.1759,0.1757,0,0,0.194,0.1907,0.1899,0.1843,0.1841,0.1823,0.183,0.1779,0.1841,0.1878,0.195,0.2195,0.232,0.2018,0.1982,0.1856,0.1971,0.1778,0.2472,0.2416,0.2449,0.2557,0.2353,0,0,0,0,0]},{"header":{"parameterUnit":"m.s-1","parameterCategory":2,"la1":30.2991,"la2":30.254,"lo1":-89.0895,"lo2":-89.0444,"dy":0.0017,"dx":0.0017,"nx":28,"ny":28,"refTime":"2024-02-15T09:00:00:Z","depth":"2","parameterNumber":3,"parameterNumberName":"V-component_of_CURRENTS"},"data":[0,0,0,0,0,0,0,0,0,0,0,0,0,0,0,0,0,0,0,0,0,0,0,0,0,0,0,0,0,0,0,0,0,0,0,0,0,0,0,0,0,0,0,0,0,0,0,0,0,0,0,0,0,0,0,0,0,0,0.0115,0.0115,0,0.0071,0.007,0.007,0.0034,0.0034,0.0033,0.0033,-0.0035,-0.0037,-0.0038,0,0,0,0,0,0,0,0,0,0,0,0,0,0.0126,0.0126,0.0115,0.0115,0.0115,0.0071,0.007,0.0069,0.0034,0.0034,0.0033,0.0033,-0.0035,-0.0037,-0.0038,0,0,0,0,0,0,0,0,0,0,0,0,0,0.0104,0.0126,0.0115,0.0093,0.009,0.0071,0.007,0.0069,0.0034,0.0034,0.0033,0.0033,-0.0034,-0.0036,-0.0039,-0.0048,0,0,-0.0046,-0.0047,0,0,0,0,0,0,0,0,0.0105,0.0104,0.0097,0.0094,0.0092,0.0059,0.0049,0.003,0.0034,0.0054,0.0033,0.0033,-0.0005,-0.0009,-0.0019,-0.0051,-0.0054,-0.0046,-0.0048,-0.0049,-0.005,0,0,0,0,0,0,0,0.0107,0.0105,0.0096,0.0096,0.0093,0.007,0.0067,0.0045,0.0025,0.0052,0.005,0.0047,-0.0006,-0.0017,-0.0021,-0.0055,-0.0046,-0.0049,-0.005,-0.0051,-0.009,-0.0089,0,0,0,0,0,0,0.0119,0.0107,0.0097,0.0095,0.01,0.007,0.0067,0.0068,0.0026,0.002,0.0048,0.0046,-0.0012,-0.0018,-0.0024,-0.0025,-0.0049,-0.0051,-0.0053,-0.009,-0.009,-0.0089,0,0,0,0,0,0,0.0119,0.0118,0.0099,0.0101,0.0097,0.0071,0.0073,0.0068,0.0061,0.0023,0.0016,0.0047,-0.0013,-0.002,-0.0037,-0.0028,-0.0052,-0.0055,-0.0091,-0.009,-0.0089,-0.0035,0,0,0,0,0,0,0.012,0.0119,0.0123,0.0102,0.0097,0.0096,0.0073,0.0067,0.006,0.0058,0.002,0.0013,-0.0014,-0.0033,-0.0039,-0.0032,-0.0056,-0.0091,-0.009,-0.009,-0.0038,-0.0033,-0.0029,0,0,0,0,0,0.012,0.013,0.0123,0.0122,0.0104,0.0096,0.0092,0.0071,0.0061,0.0062,0.0037,0.0014,-0.0032,-0.0034,-0.0042,-0.0035,-0.0092,-0.0091,-0.009,-0.004,-0.0034,-0.0029,0,0,0,0,0,0,0.0135,0.0126,0.0119,0.0125,0.0115,0.0091,0.0089,0.0077,0.0058,0.0054,0.0019,0.001,-0.0001,-0.0024,-0.0026,-0.0044,-0.0065,-0.0066,-0.0025,-0.0019,-0.0015,-0.0004,-0.0058,0,0,0,0,0,0.0141,0.0147,0.0133,0.0138,0.0135,0.0114,0.0107,0.0096,0.0077,0.0068,0.0044,0.0017,-0.0004,-0.0015,-0.0038,-0.0048,-0.0069,-0.0048,-0.0044,-0.004,-0.0035,-0.0061,-0.0058,-0.0086,-0.0086,-0.0086,0,0,0.0148,0.0144,0.0147,0.0141,0.013,0.0133,0.0109,0.0105,0.0107,0.0064,0.0058,0.0032,-0.0003,-0.0014,-0.0021,-0.0032,-0.0042,-0.0039,-0.0035,-0.0033,-0.006,-0.0057,-0.0055,-0.0085,-0.0085,-0.0086,0,0,0.0167,0.0162,0.0173,0.0168,0.0159,0.0148,0.0152,0.0134,0.0126,0.0117,0.0088,0.0069,0.0037,0.0015,-0.0001,0.0014,-0.0017,0.0009,0.0039,0.0015,0.0017,0.0018,0.0002,0.0002,0.0011,0.0011,0.0011,0,0.0173,0.0189,0.0174,0.0182,0.0185,0.016,0.0175,0.0161,0.0142,0.014,0.0122,0.008,0.005,0.0036,0.0041,0.0024,0.0009,0.0023,0.0021,0.0022,0.0023,0.0006,0.0004,0.0014,0.0013,0.0013,0.0013,0,0.02,0.0211,0.0217,0.0222,0.0223,0.0231,0.0217,0.0216,0.0203,0.0186,0.0172,0.0129,0.0106,0.0092,0.0069,0.0063,0.0051,0.003,0.0009,0.0029,0.001,0.0007,0.0018,0.0017,0.0016,0.0015,0,0,0.0219,0.0235,0.0236,0.0257,0.0248,0.0259,0.0261,0.0264,0.0275,0.0239,0.0248,0.02,0.0176,0.0157,0.0125,0.01,0.009,0.0073,0.007,0.0061,0.0044,0.0007,0.0001,0.007,0.0069,0.0069,0.0032,0,0.0246,0.0284,0.0277,0.0315,0.034,0.0323,0.0335,0.033,0.0314,0.0314,0.0263,0.0252,0.0201,0.0196,0.0162,0.0115,0.0086,0.0102,0.0024,0.0022,-0.0011,-0.0002,0.0022,-0.0011,0.003,0.0029,0.0029,0,0.0276,0.0304,0.0351,0.0388,0.0396,0.041,0.0436,0.0444,0.0424,0.0413,0.0381,0.0335,0.0298,0.025,0.0168,0.0183,0.0119,0.0071,0.0068,0.0012,-0.002,-0.0027,-0.0017,0.0025,0.0025,0.0026,0.0026,0,0.0321,0.0356,0.0405,0.0415,0.0446,0.0466,0.0481,0.0476,0.0503,0.0477,0.0493,0.0417,0.0406,0.0308,0.0205,0.0188,0.0115,0.0077,-0.0022,-0.0025,-0.003,-0.0034,0.0009,0.0009,0.0009,0.0009,0.0009,0,0.036,0.0399,0.0434,0.0462,0.053,0.0526,0.0584,0.0584,0.0598,0.0651,0.0555,0.0579,0.0421,0.0355,0.0238,0.0113,0.0139,-0.0014,-0.0038,-0.0011,-0.0012,-0.0005,-0.0006,0.0007,0.0008,0.0008,0.0008,0,0.0403,0.0422,0.0488,0.0535,0.0557,0.0607,0.0667,0.0706,0.0712,0.078,0.078,0.0712,0.0626,0.0463,0.0313,0.0174,0.0045,-0.001,0.0035,0.0015,-0.009,-0.0088,-0.0133,-0.0135,-0.0136,-0.0137,-0.0138,0,0.0431,0.0471,0.0549,0.0598,0.0622,0.0692,0.0743,0.0767,0.0823,0.0876,0.0924,0.0847,0.0814,0.0566,0.0315,0.0089,0.0059,-0.0064,-0.0112,-0.0086,-0.0106,-0.0101,-0.0097,-0.0091,-0.0091,-0.0092,-0.0092,0,0.0489,0.0515,0.0569,0.0669,0.0736,0.0829,0.0907,0.0976,0.1029,0.1089,0.1162,0.1133,0.0885,0.0646,0.0303,0.0143,-0.0035,-0.0083,-0.0055,-0.0066,-0.0052,-0.0069,-0.0065,-0.0096,-0.0095,-0.0095,-0.0095,-0.0095,0.053,0.0579,0.0649,0.0747,0.0838,0.097,0.1067,0.1157,0.1281,0.1387,0.1342,0.1307,0.0993,0.0559,0.0269,-0.005,-0.0045,-0.0172,-0.0168,-0.0165,-0.0161,-0.0151,-0.0211,-0.0212,-0.0212,-0.0212,-0.0212,0,0.0573,0.063,0.0722,0.0854,0.0972,0.1014,0.1183,0.1281,0.1448,0.1502,0.1548,0.1254,0.0965,0.0624,0.0153,-0.0147,-0.0163,-0.0243,-0.019,-0.0185,-0.0181,-0.0176,-0.0232,-0.0232,-0.0233,-0.0234,0,0,0.0597,0.068,0.0729,0.094,0.1051,0.1234,0.1348,0.1477,0.1557,0.1621,0.1586,0.1494,0.1064,0.0719,0.0322,0.0056,0.0003,-0.0005,0.004,0.0156,0.0164,-0.0114,-0.0097,0,0,0,0,0]}],[{"header":{"parameterUnit":"m.s-1","parameterCategory":2,"la1":30.2991,"la2":30.254,"lo1":-89.0895,"lo2":-89.0444,"dy":0.0017,"dx":0.0017,"nx":28,"ny":28,"refTime":"2024-02-15T09:00:00:Z","depth":"4","parameterNumber":2,"parameterNumberName":"U-component_of_CURRENTS"},"data":[0,0,0,0,0,0,0,0,0,0,0,0,0,0,0,0,0,0,0,0,0,0,0,0,0,0,0,0,0,0,0,0,0,0,0,0,0,0,0,0,0,0,0,0,0,0,0,0,0,0,0,0,0,0,0,0,0,0,0.1405,0.1405,0,0.1465,0.1466,0.1466,0.1511,0.1512,0.1512,0.1513,0.1577,0.1578,0.158,0,0,0,0,0,0,0,0,0,0,0,0,0,0.1321,0.1322,0.1404,0.1405,0.1406,0.1465,0.1466,0.1466,0.1511,0.1512,0.1512,0.1513,0.1577,0.1578,0.158,0,0,0,0,0,0,0,0,0,0,0,0,0,0.1366,0.1323,0.1404,0.1436,0.144,0.1465,0.1466,0.1466,0.1511,0.1512,0.1512,0.1513,0.1576,0.1578,0.158,0.1576,0,0,0.1586,0.1587,0,0,0,0,0,0,0,0,0.1363,0.1369,0.1431,0.1434,0.1438,0.1482,0.146,0.1504,0.1511,0.1483,0.1513,0.1514,0.1546,0.1551,0.1558,0.1579,0.1582,0.1586,0.1587,0.1588,0.1588,0,0,0,0,0,0,0,0.136,0.1366,0.1427,0.1432,0.1436,0.1446,0.1453,0.1468,0.1508,0.1485,0.1489,0.1497,0.1548,0.1556,0.156,0.1583,0.1586,0.1587,0.1589,0.1589,0.1691,0.1693,0,0,0,0,0,0,0.1355,0.1364,0.1425,0.1429,0.1403,0.1447,0.1455,0.1466,0.1508,0.1516,0.1497,0.1499,0.1553,0.1558,0.1563,0.163,0.1588,0.159,0.1591,0.169,0.1691,0.1693,0,0,0,0,0,0,0.1353,0.136,0.1423,0.1398,0.1407,0.1448,0.146,0.1467,0.1508,0.1517,0.1525,0.1534,0.1554,0.156,0.1609,0.163,0.159,0.1592,0.1688,0.169,0.1692,0.172,0,0,0,0,0,0,0.135,0.1359,0.138,0.1398,0.1409,0.1456,0.146,0.1468,0.151,0.1515,0.1551,0.1556,0.1555,0.1606,0.161,0.1632,0.1594,0.1686,0.1689,0.1692,0.1717,0.1723,0.1728,0,0,0,0,0,0.1347,0.1365,0.1381,0.1389,0.1432,0.1457,0.1464,0.1493,0.1512,0.1532,0.1563,0.1557,0.1628,0.1609,0.1614,0.1636,0.1684,0.1688,0.1691,0.1715,0.1722,0.1728,0,0,0,0,0,0,0.1339,0.1372,0.139,0.1418,0.1446,0.1466,0.1491,0.1512,0.1552,0.1568,0.1577,0.1584,0.1635,0.1637,0.1616,0.1677,0.1655,0.1659,0.1671,0.1678,0.1683,0.1693,0.1595,0,0,0,0,0,0.1347,0.1371,0.1402,0.1426,0.1445,0.1475,0.1496,0.1518,0.1548,0.1568,0.1593,0.1622,0.1648,0.1665,0.1687,0.172,0.1733,0.1739,0.1744,0.1749,0.1762,0.1803,0.1813,0.1705,0.1705,0.1705,0,0,0.1351,0.1372,0.1388,0.1427,0.1453,0.1479,0.1491,0.1531,0.156,0.1568,0.1625,0.1647,0.1663,0.1701,0.1723,0.1709,0.1788,0.1753,0.1757,0.1768,0.1808,0.1819,0.1828,0.1707,0.1707,0.1706,0,0,0.1354,0.1392,0.1411,0.1439,0.1484,0.1503,0.1522,0.1563,0.1595,0.1642,0.1659,0.17,0.1736,0.1753,0.1764,0.1815,0.1819,0.1825,0.1857,0.1896,0.1905,0.1913,0.1941,0.1952,0.1823,0.1823,0.1823,0,0.1362,0.1386,0.1421,0.1446,0.147,0.1516,0.1541,0.1578,0.1632,0.166,0.1667,0.1743,0.1758,0.1803,0.1825,0.1827,0.1851,0.1825,0.1902,0.1911,0.1918,0.1945,0.1956,0.1825,0.1825,0.1825,0.1825,0,0.1371,0.1404,0.1419,0.1465,0.1497,0.1528,0.1577,0.1627,0.1668,0.1697,0.1767,0.1794,0.1839,0.1848,0.1853,0.1919,0.1919,0.1905,0.1881,0.1931,0.1956,0.1967,0.1828,0.1827,0.1826,0.1826,0,0,0.1348,0.1412,0.1421,0.1444,0.1511,0.1533,0.1597,0.1655,0.1704,0.1759,0.1812,0.1865,0.1895,0.1912,0.1928,0.1962,0.2035,0.1966,0.1967,0.1987,0.2128,0.1991,0.199,0.2041,0.2043,0.2045,0.2121,0,0.1346,0.1387,0.1422,0.1466,0.1493,0.1557,0.1609,0.1674,0.1733,0.1798,0.1846,0.1904,0.1914,0.1947,0.1988,0.203,0.2067,0.2015,0.2084,0.2086,0.1952,0.1999,0.2052,0.2129,0.2132,0.2134,0.2135,0,0.1337,0.1367,0.1409,0.1472,0.1491,0.1531,0.1624,0.1678,0.1781,0.1827,0.1901,0.1946,0.2027,0.2016,0.2122,0.2095,0.2125,0.2144,0.2146,0.2018,0.1969,0.2072,0.2155,0.2153,0.2152,0.215,0.2149,0,0.1291,0.1353,0.1385,0.1409,0.1492,0.1534,0.1589,0.1692,0.1745,0.186,0.1908,0.2003,0.2063,0.2123,0.2187,0.2169,0.2284,0.2253,0.2156,0.2146,0.2234,0.2224,0.2323,0.2323,0.2323,0.2323,0.2322,0,0.1258,0.1281,0.1373,0.1389,0.1439,0.1514,0.1584,0.1657,0.1763,0.1822,0.1928,0.1984,0.2099,0.2176,0.2214,0.2223,0.2312,0.2174,0.216,0.2243,0.2234,0.2241,0.223,0.2325,0.2325,0.2324,0.2324,0,0.1184,0.1248,0.1285,0.1381,0.1417,0.1455,0.1568,0.1609,0.1735,0.1817,0.1859,0.1998,0.2101,0.2192,0.2292,0.2241,0.2268,0.2247,0.2344,0.2332,0.2096,0.2086,0.2135,0.2131,0.2127,0.2124,0.2122,0,0.1141,0.1161,0.1263,0.1289,0.1332,0.1408,0.1453,0.158,0.1628,0.1808,0.1829,0.1978,0.2061,0.2097,0.2197,0.2252,0.223,0.2215,0.2141,0.2096,0.2079,0.2075,0.207,0.2116,0.2115,0.2114,0.2114,0,0.106,0.1113,0.1147,0.1202,0.1251,0.1292,0.1375,0.1402,0.1553,0.1684,0.1766,0.1832,0.1939,0.2018,0.208,0.2112,0.2204,0.2178,0.2184,0.2115,0.2074,0.206,0.2059,0.2101,0.2103,0.2104,0.2105,0,0.1002,0.1005,0.1065,0.1098,0.1146,0.1154,0.1218,0.1287,0.1361,0.1573,0.16,0.177,0.1918,0.1948,0.2005,0.2027,0.1993,0.1911,0.1931,0.1945,0.1848,0.1767,0.1696,0,0,0,0,0,0.0947,0.094,0.0956,0.098,0.1013,0.105,0.1148,0.1222,0.1386,0.14,0.1501,0.1601,0.1695,0.1782,0.177,0.1913,0.199,0.1887,0.1901,0.2034,0.2048,0.1951,0,0,0,0,0,0,0.091,0.0923,0.092,0.0868,0.0865,0.0891,0.0953,0.1066,0.1096,0.128,0.1349,0.149,0.1615,0.1693,0.1737,0.1763,0.1734,0.2,0.1996,0.2026,0.2039,0.205,0.1955,0,0,0,0,0]},{"header":{"parameterUnit":"m.s-1","parameterCategory":2,"la1":30.2991,"la2":30.254,"lo1":-89.0895,"lo2":-89.0444,"dy":0.0017,"dx":0.0017,"nx":28,"ny":28,"refTime":"2024-02-15T09:00:00:Z","depth":"4","parameterNumber":3,"parameterNumberName":"V-component_of_CURRENTS"},"data":[0,0,0,0,0,0,0,0,0,0,0,0,0,0,0,0,0,0,0,0,0,0,0,0,0,0,0,0,0,0,0,0,0,0,0,0,0,0,0,0,0,0,0,0,0,0,0,0,0,0,0,0,0,0,0,0,0,0,0.0103,0.0102,0,0.0075,0.0075,0.0075,0.0058,0.0058,0.0058,0.0058,0.001,0.0008,0.0007,0,0,0,0,0,0,0,0,0,0,0,0,0,0.0109,0.011,0.0103,0.0102,0.0102,0.0076,0.0075,0.0075,0.0058,0.0058,0.0058,0.0058,0.001,0.0009,0.0007,0,0,0,0,0,0,0,0,0,0,0,0,0,0.0096,0.011,0.0103,0.0092,0.0091,0.0076,0.0075,0.0074,0.0058,0.0058,0.0058,0.0059,0.0011,0.0009,0.0007,-0.0007,0,0,0.0001,-0.0,0,0,0,0,0,0,0,0,0.0097,0.0095,0.0094,0.0093,0.0091,0.0071,0.006,0.0047,0.0058,0.0069,0.0058,0.0059,0.0029,0.0026,0.0019,-0.0009,-0.0011,0.0001,-0.0001,-0.0002,-0.0002,0,0,0,0,0,0,0,0.0098,0.0096,0.0091,0.0093,0.0092,0.0078,0.0076,0.0057,0.0048,0.0068,0.0067,0.0066,0.0028,0.0021,0.0018,-0.0012,0.0001,-0.0001,-0.0002,-0.0003,-0.0044,-0.0044,0,0,0,0,0,0,0.0105,0.0097,0.0092,0.009,0.0095,0.0078,0.0076,0.0077,0.0049,0.0045,0.0066,0.0066,0.0024,0.002,0.0016,0.001,-0.0002,-0.0003,-0.0005,-0.0044,-0.0044,-0.0044,0,0,0,0,0,0,0.0105,0.0105,0.0093,0.0094,0.0091,0.0078,0.0079,0.0076,0.0073,0.0047,0.0043,0.0067,0.0024,0.0019,0.0005,0.0008,-0.0004,-0.0006,-0.0044,-0.0044,-0.0044,-0.0009,0,0,0,0,0,0,0.0106,0.0105,0.0108,0.0095,0.0092,0.0089,0.0079,0.0076,0.0073,0.0071,0.0046,0.0041,0.0024,0.0008,0.0003,0.0005,-0.0008,-0.0045,-0.0044,-0.0044,-0.001,-0.0007,-0.0005,0,0,0,0,0,0.0106,0.011,0.0108,0.0108,0.0096,0.0089,0.0086,0.0076,0.0073,0.0073,0.0057,0.0042,0.0006,0.0007,0.0001,0.0002,-0.0045,-0.0044,-0.0044,-0.0011,-0.0008,-0.0005,0,0,0,0,0,0,0.0111,0.0108,0.0106,0.0108,0.0103,0.0087,0.0086,0.008,0.0067,0.0067,0.0043,0.0037,0.0026,0.0009,0.0011,-0.0009,-0.0022,-0.0023,0.0005,0.0008,0.0011,0.0021,-0.0009,0,0,0,0,0,0.0116,0.012,0.0112,0.0114,0.0112,0.01,0.0096,0.0091,0.0078,0.0073,0.0057,0.0038,0.0022,0.0012,-0.0005,-0.0017,-0.004,-0.002,-0.0018,-0.0016,-0.0011,-0.0042,-0.0041,-0.0043,-0.0043,-0.0043,0,0,0.0119,0.0117,0.012,0.0116,0.011,0.0111,0.0098,0.0095,0.0097,0.0069,0.0065,0.0046,0.0021,0.0009,0.0003,-0.0004,-0.0028,-0.0015,-0.0013,-0.001,-0.0041,-0.0041,-0.0041,-0.0043,-0.0043,-0.0043,0,0,0.0129,0.0126,0.0134,0.013,0.0126,0.012,0.0122,0.0112,0.0107,0.01,0.0081,0.0066,0.0041,0.0024,0.0012,0.0017,-0.0013,0.0011,0.003,0.0001,0.0001,0.0001,-0.0032,-0.0036,0.0012,0.0012,0.0012,0,0.0131,0.0144,0.0134,0.0138,0.0142,0.0128,0.0138,0.0127,0.0114,0.0113,0.0104,0.0069,0.0048,0.0033,0.0036,0.0022,0.0,0.0022,0.0005,0.0004,0.0003,-0.0031,-0.0035,0.0013,0.0013,0.0013,0.0013,0,0.0147,0.0156,0.016,0.0165,0.0165,0.0171,0.0161,0.016,0.0154,0.0142,0.0128,0.0097,0.0079,0.0067,0.0053,0.0038,0.0023,0.0012,-0.0001,0.0005,-0.0031,-0.0036,0.0016,0.0015,0.0015,0.0014,0,0,0.0156,0.017,0.0171,0.0191,0.0184,0.0193,0.0191,0.0193,0.0202,0.0173,0.0177,0.0139,0.0122,0.0107,0.0083,0.0057,0.0029,0.0037,0.0034,0.0007,-0.0039,-0.0048,-0.0055,0.0016,0.0016,0.0015,-0.0063,0,0.0175,0.0202,0.0198,0.023,0.025,0.0238,0.0247,0.0242,0.0229,0.0226,0.0182,0.0175,0.0136,0.0135,0.0099,0.0051,0.0018,0.0051,-0.0044,-0.0046,-0.0053,-0.0061,0.0014,-0.0067,-0.0068,-0.0069,-0.007,0,0.0195,0.0216,0.0253,0.0289,0.0296,0.0309,0.0332,0.0337,0.0315,0.0304,0.0271,0.0235,0.019,0.0163,0.0065,0.0088,0.0029,-0.0015,-0.002,-0.0043,-0.0065,-0.0075,-0.0079,-0.0079,-0.0078,-0.0077,-0.0077,0,0.0227,0.0257,0.0298,0.0306,0.0335,0.0355,0.0371,0.0364,0.0385,0.0357,0.0363,0.0286,0.0267,0.0174,0.007,0.007,-0.0039,-0.0052,-0.0123,-0.0124,-0.0108,-0.0107,-0.0122,-0.0122,-0.0121,-0.0121,-0.0121,0,0.0255,0.0289,0.0323,0.0345,0.0407,0.0407,0.046,0.0459,0.0465,0.0493,0.0414,0.041,0.0271,0.0188,0.0083,-0.0039,-0.0036,-0.0121,-0.0144,-0.0092,-0.0088,-0.0112,-0.011,-0.0124,-0.0123,-0.0123,-0.0122,0,0.0286,0.0304,0.0359,0.0402,0.0428,0.0473,0.0534,0.0567,0.0564,0.0596,0.0593,0.0506,0.039,0.024,0.0087,-0.0007,-0.0129,-0.0172,-0.0108,-0.0126,-0.02,-0.0195,-0.026,-0.0261,-0.0262,-0.0262,-0.0263,0,0.0304,0.0337,0.0408,0.0449,0.0474,0.0543,0.0595,0.0621,0.0658,0.0655,0.0675,0.0571,0.0492,0.0269,0.01,-0.012,-0.0147,-0.0217,-0.021,-0.0198,-0.0214,-0.0208,-0.0202,-0.0264,-0.0264,-0.0265,-0.0265,0,0.0341,0.0367,0.041,0.0497,0.0563,0.0646,0.0717,0.0753,0.0781,0.0777,0.0748,0.0618,0.0482,0.0281,0.0105,-0.005,-0.0177,-0.0226,-0.0225,-0.022,-0.0204,-0.0218,-0.0211,-0.0268,-0.0267,-0.0267,-0.0267,0,0.0366,0.0402,0.0462,0.0542,0.0629,0.072,0.0756,0.0803,0.0844,0.0833,0.0818,0.0662,0.0565,0.0317,0.0159,-0.0004,-0.0045,-0.0094,-0.0101,-0.01,-0.0036,0.0008,-0.001,0,0,0,0,0,0.0385,0.0428,0.0501,0.059,0.0677,0.0739,0.0827,0.0854,0.088,0.0873,0.085,0.0722,0.0475,0.0365,0.0202,0.013,-0.0084,-0.0068,-0.0146,-0.0284,-0.028,-0.0234,0,0,0,0,0,0,0.0397,0.0461,0.0501,0.0622,0.0689,0.0802,0.0863,0.0883,0.0881,0.087,0.0745,0.0678,0.0439,0.0569,0.0198,0.0146,0.0074,-0.0185,-0.0189,-0.0285,-0.0282,-0.028,-0.0231,0,0,0,0,0]}]]